C/2021 A1 ( Leonard )

Japanese version
Home page
Updated on April 4, 2021

---------------------------------------------------------------------

* Profile

Discovery Date January 3, 2021
Magnitude 19.0 mag
Discoverer Gregory J. Leonard (Mount Lemmon Survey)

* Pictures

* Orbital Elements

Epoch 2022 Jan. 21.0 TT = JDT 2459600.5
T 2022 Jan. 3.29949 TT                                  Rudenko
q   0.6152375            (2000.0)            P               Q
z  -0.0000270      Peri.  225.09379     +0.63774425     +0.29160182
 +/-0.0000064      Node   255.89595     +0.72790469     -0.53082130
e   1.0000166      Incl.  132.68636     -0.25186710     -0.79573684
From 513 observations 2020 Apr. 11-2021 Mar. 25, mean residual 0".6.

* Finding Charts

* Magnitudes Graph

        m1 = 8.5 + 5 log d + 10.0 log r

---------------------------------------------------------------------

The orbital elements are published on M.P.E.C. 2021-F115.
The charts are made with StellaNavigator Ver.10 (AstroArts).
The magnitudes graphs are made with Comet for Windows.

---------------------------------------------------------------------

Copyright(C) Seiichi Yoshida (comet@aerith.net). All rights reserved.